�N����,����,�~����,�C��,���x,�C��,����,���ϕ���,�ő�u�ԕ���,�ő厞����,���˗�,�I�_���x,�n�����x,�ő啗���N��,DTYPE
"23/12/15","00:10",0.0,10.2,91.9,1018.2,306.1,1.6,2.5,306.5,0.00,9.0,11.1,"00:06:00",1
"23/12/15","00:20",0.2,10.2,92.1,1018.2,290.5,1.2,1.8,307.6,0.00,9.0,11.1,"00:10:02",1
"23/12/15","00:30",0.0,10.1,92.3,1017.8,305.3,1.1,2.1,329.1,0.00,8.9,11.2,"00:20:40",1
"23/12/15","00:40",0.0,10.2,92.6,1017.8,321.2,1.3,2.2,323.5,0.00,9.1,11.3,"00:35:20",1
"23/12/15","00:50",0.2,10.0,92.8,1017.8,299.6,1.2,1.7,320.8,0.00,8.9,11.1,"00:42:32",1
"23/12/15","01:00",0.0,9.9,93.0,1018.0,301.5,1.2,1.6,310.9,0.00,8.9,11.2,"00:55:28",1
"23/12/15","01:10",0.2,9.9,93.2,1017.3,303.5,1.1,1.6,316.6,0.00,8.9,11.0,"01:06:56",1
"23/12/15","01:20",0.2,9.9,93.4,1017.5,307.2,1.3,1.8,317.4,0.00,8.9,11.2,"01:17:16",1
"23/12/15","01:30",0.0,9.9,93.6,1017.3,302.4,1.5,1.8,313.6,0.00,9.0,11.0,"01:23:38",1
"23/12/15","01:40",0.2,9.9,93.7,1017.1,285.7,0.8,1.3,282.8,0.00,9.0,11.2,"01:30:56",1
"23/12/15","01:50",0.0,9.9,94.0,1016.8,268.7,1.0,1.3,258.6,0.00,9.0,11.1,"01:48:48",1
"23/12/15","02:00",0.0,9.9,94.1,1016.4,279.4,0.8,1.6,260.7,0.00,9.0,11.2,"01:50:56",1
"23/12/15","02:10",0.0,10.0,94.2,1016.4,313.0,1.3,2.1,314.0,0.00,9.2,11.1,"02:08:48",1
"23/12/15","02:20",0.0,9.9,94.4,1016.4,322.7,1.5,1.9,320.5,0.00,9.1,11.2,"02:18:08",1
"23/12/15","02:30",0.0,9.9,94.6,1016.4,311.2,1.3,1.6,321.6,0.00,9.1,11.2,"02:22:56",1
"23/12/15","02:40",0.0,10.0,94.7,1016.4,318.1,1.5,2.0,320.0,0.00,9.2,11.2,"02:34:50",1
"23/12/15","02:50",0.0,10.0,94.9,1016.4,307.5,1.1,1.7,306.4,0.00,9.3,11.0,"02:42:24",1
"23/12/15","03:00",0.0,10.0,94.9,1015.9,294.0,0.8,1.2,307.0,0.00,9.3,11.1,"02:53:20",1
"23/12/15","03:10",0.2,10.2,95.2,1016.1,314.6,0.2,0.6,301.0,0.00,9.5,11.4,"03:00:16",1
"23/12/15","03:20",0.0,10.3,95.3,1015.9,15.8,0.5,0.9,332.1,0.00,9.6,11.0,"03:12:08",1
"23/12/15","03:30",0.0,10.2,95.4,1015.6,291.7,0.6,1.0,283.1,0.00,9.5,11.0,"03:22:00",1
"23/12/15","03:40",0.0,10.1,95.5,1015.6,279.5,0.8,1.2,261.3,0.00,9.5,11.3,"03:34:08",1
"23/12/15","03:50",0.2,10.2,95.6,1015.6,300.7,1.1,1.2,283.5,0.00,9.6,11.0,"03:49:20",1
"23/12/15","04:00",0.2,10.2,95.7,1014.9,326.4,1.2,1.6,328.1,0.00,9.6,11.0,"03:57:12",1
"23/12/15","04:10",0.0,10.2,95.8,1015.2,313.4,1.3,1.7,314.8,0.00,9.6,11.2,"04:07:04",1
"23/12/15","04:20",0.2,10.2,96.0,1015.4,307.5,1.2,1.4,315.5,0.00,9.6,11.3,"04:11:28",1
"23/12/15","04:30",0.2,10.2,96.0,1015.4,318.7,1.3,1.9,317.9,0.00,9.6,10.9,"04:24:00",1
"23/12/15","04:40",0.2,10.3,96.1,1014.7,295.9,1.5,2.0,318.2,0.00,9.7,11.1,"04:37:30",1
"23/12/15","04:50",0.2,10.3,96.2,1014.5,275.9,1.1,1.6,261.8,0.00,9.8,11.0,"04:44:58",1
"23/12/15","05:00",0.2,10.3,96.4,1014.7,301.1,1.2,1.7,307.9,0.00,9.8,11.1,"04:59:34",1
"23/12/15","05:10",0.0,10.3,96.4,1014.2,273.3,0.5,1.3,311.3,0.00,9.8,11.1,"05:00:56",1
"23/12/15","05:20",0.4,10.4,96.5,1014.2,285.0,0.5,0.8,303.6,0.00,9.9,11.1,"05:11:48",1
"23/12/15","05:30",0.0,10.5,96.6,1014.0,12.2,0.6,1.4,106.6,0.00,10.0,11.0,"05:23:10",1
"23/12/15","05:40",0.0,10.4,96.7,1013.8,284.0,1.0,1.2,297.0,0.00,9.9,11.1,"05:30:18",1
"23/12/15","05:50",0.2,10.4,96.8,1013.8,284.7,0.7,1.1,280.2,0.00,10.0,11.3,"05:40:40",1
"23/12/15","06:00",0.0,10.5,97.0,1013.8,325.3,0.5,1.7,307.1,0.00,10.1,11.2,"05:59:22",1
"23/12/15","06:10",0.0,10.4,97.0,1013.8,314.4,1.2,1.7,334.1,0.00,10.0,11.2,"06:00:14",1
"23/12/15","06:20",0.0,10.5,97.1,1013.8,298.3,1.0,1.6,322.9,0.00,10.1,10.8,"06:17:28",1
"23/12/15","06:30",0.0,10.5,97.1,1013.8,288.8,0.6,1.8,304.2,0.00,10.1,11.0,"06:21:44",1
"23/12/15","06:40",0.0,10.5,97.2,1013.8,298.3,1.5,2.0,310.4,0.00,10.1,11.1,"06:31:04",1
"23/12/15","06:50",0.0,10.6,97.3,1013.0,295.1,1.6,2.4,319.2,0.00,10.2,11.2,"06:47:06",1
"23/12/15","07:00",0.0,10.6,97.3,1012.8,302.0,1.6,2.1,305.7,0.00,10.2,11.0,"06:53:10",1
"23/12/15","07:10",0.0,10.7,97.4,1013.0,272.8,1.5,2.2,252.0,0.00,10.3,11.3,"07:06:58",1
"23/12/15","07:20",0.0,10.8,97.5,1013.3,278.7,1.5,1.9,248.4,0.00,10.5,11.2,"07:11:42",1
"23/12/15","07:30",0.0,10.8,97.5,1013.0,309.9,1.1,1.4,314.5,0.00,10.5,11.2,"07:22:10",1
"23/12/15","07:40",0.0,10.9,97.6,1013.0,283.7,0.5,1.1,312.3,0.00,10.6,11.2,"07:31:12",1
"23/12/15","07:50",0.0,11.0,97.7,1013.3,296.0,1.0,1.6,264.0,0.00,10.7,11.2,"07:49:24",1
"23/12/15","08:00",0.0,11.0,97.7,1012.8,320.7,1.2,2.1,321.5,0.00,10.7,11.2,"07:59:44",1
"23/12/15","08:10",0.0,11.1,97.8,1012.8,299.0,1.2,1.8,321.3,0.00,10.8,11.3,"08:01:12",1
"23/12/15","08:20",0.0,11.1,97.8,1013.0,283.1,1.0,2.0,324.7,0.00,10.8,11.2,"08:10:02",1
"23/12/15","08:30",0.0,11.2,97.9,1013.0,321.6,1.6,2.4,330.2,0.00,10.9,11.3,"08:24:40",1
"23/12/15","08:40",0.0,11.2,97.9,1012.8,278.5,1.1,2.1,242.0,0.02,10.9,11.3,"08:31:44",1
"23/12/15","08:50",0.0,11.3,97.9,1013.0,279.4,1.2,1.7,300.5,0.03,11.0,11.2,"08:41:28",1
"23/12/15","09:00",0.0,11.3,98.0,1012.8,303.0,0.8,2.1,318.5,0.01,11.0,11.2,"08:58:48",1
"23/12/15","09:10",0.0,11.5,97.5,1013.0,285.8,0.8,1.8,263.2,0.01,11.2,11.2,"09:00:24",1
"23/12/15","09:20",0.0,11.4,98.0,1012.6,309.8,1.3,2.4,314.0,0.01,11.1,11.1,"09:14:32",1
"23/12/15","09:30",0.0,11.6,97.6,1012.8,287.9,1.6,2.2,256.4,0.03,11.3,11.1,"09:23:28",1
"23/12/15","09:40",0.0,11.5,98.0,1012.8,279.1,1.5,2.1,252.0,0.03,11.2,11.4,"09:33:28",1
"23/12/15","09:50",0.0,11.8,97.7,1012.3,283.4,1.5,2.1,248.0,0.05,11.5,11.3,"09:45:04",1
"23/12/15","10:00",0.0,11.9,98.1,1012.1,282.0,1.5,2.2,248.4,0.05,11.6,11.3,"09:52:08",1
"23/12/15","10:10",0.0,12.1,97.5,1011.9,299.1,1.6,2.5,336.4,0.05,11.8,11.4,"10:06:08",1
"23/12/15","10:20",0.0,12.1,98.0,1011.9,273.8,1.3,2.0,293.7,0.06,11.8,11.5,"10:10:16",1
"23/12/15","10:30",0.0,12.5,97.6,1011.6,272.4,1.2,2.2,323.3,0.11,12.2,11.2,"10:20:02",1
"23/12/15","10:40",0.0,12.6,98.0,1011.6,284.8,1.1,2.1,325.0,0.12,12.3,11.5,"10:30:24",1
"23/12/15","10:50",0.0,13.1,97.5,1011.4,302.1,1.1,1.8,312.0,0.16,12.8,11.3,"10:48:36",1
"23/12/15","11:00",0.0,13.0,97.9,1010.9,297.8,1.3,1.7,317.9,0.13,12.7,11.4,"10:54:38",1
"23/12/15","11:10",0.0,13.2,97.8,1010.7,264.7,1.0,1.9,309.8,0.14,12.9,11.3,"11:00:16",1
"23/12/15","11:20",0.0,13.4,97.8,1010.7,252.1,0.6,1.6,245.8,0.13,13.1,11.4,"11:11:44",1
"23/12/15","11:30",0.0,13.6,97.7,1010.2,304.4,0.8,1.4,316.1,0.13,13.3,11.5,"11:22:08",1
"23/12/15","11:40",0.0,13.6,97.6,1010.2,294.3,0.8,1.9,325.8,0.10,13.3,11.6,"11:39:14",1
"23/12/15","11:50",0.0,13.7,97.5,1010.0,282.9,1.0,1.7,323.8,0.09,13.4,11.4,"11:40:24",1
"23/12/15","12:00",0.0,13.8,97.5,1010.0,257.5,1.0,1.4,267.6,0.14,13.5,11.7,"11:54:56",1
"23/12/15","12:10",0.0,13.8,97.4,1009.7,289.0,1.1,1.9,318.7,0.10,13.4,11.6,"12:04:00",1
"23/12/15","12:20",0.0,13.7,97.2,1009.3,262.7,1.1,1.8,251.7,0.07,13.3,11.7,"12:18:40",1
"23/12/15","12:30",0.0,13.6,97.2,1009.3,253.2,1.0,2.2,238.6,0.06,13.2,11.7,"12:24:42",1
"23/12/15","12:40",0.0,13.6,97.2,1009.0,244.8,0.5,0.9,246.8,0.06,13.2,11.9,"12:30:08",1
"23/12/15","12:50",0.0,13.6,97.2,1009.5,303.5,1.1,2.1,337.9,0.06,13.2,12.0,"12:47:36",1
"23/12/15","13:00",0.0,13.5,97.0,1009.3,305.7,1.1,1.8,328.9,0.04,13.1,11.8,"12:53:36",1
"23/12/15","13:10",0.0,13.6,97.0,1009.0,286.8,0.8,1.4,337.0,0.04,13.2,12.0,"13:09:30",1
"23/12/15","13:20",0.0,13.8,97.0,1008.8,269.9,0.8,1.4,320.8,0.05,13.4,12.1,"13:10:08",1
"23/12/15","13:30",0.0,13.8,96.9,1008.3,267.8,0.6,1.3,252.9,0.05,13.4,11.8,"13:21:36",1
"23/12/15","13:40",0.0,13.9,96.7,1008.1,298.6,0.7,1.2,310.4,0.06,13.4,11.9,"13:36:56",1
"23/12/15","13:50",0.0,13.9,96.6,1007.8,303.9,1.2,1.8,321.3,0.06,13.4,11.9,"13:45:28",1
"23/12/15","14:00",0.0,14.0,96.5,1007.6,328.2,1.2,2.0,323.0,0.08,13.5,12.0,"13:55:04",1
"23/12/15","14:10",0.0,14.2,96.4,1007.6,316.8,1.1,2.5,323.1,0.09,13.7,11.9,"14:01:52",1
"23/12/15","14:20",0.0,14.3,96.2,1007.4,251.8,0.5,1.0,288.5,0.12,13.7,12.2,"14:14:08",1
"23/12/15","14:30",0.0,14.7,96.0,1007.1,261.3,0.6,1.0,244.3,0.20,14.1,11.9,"14:28:08",1
"23/12/15","14:40",0.0,15.2,95.7,1006.7,283.4,0.5,1.1,339.2,0.24,14.6,12.0,"14:39:52",1
"23/12/15","14:50",0.0,15.4,95.4,1006.9,320.8,0.7,1.6,305.9,0.23,14.7,12.0,"14:42:08",1
"23/12/15","15:00",0.0,16.1,94.8,1006.7,285.5,0.7,1.6,320.9,0.25,15.3,12.0,"14:57:44",1
"23/12/15","15:10",0.0,16.0,94.2,1006.4,253.2,0.3,1.0,271.1,0.19,15.1,12.4,"15:00:02",1
"23/12/15","15:20",0.0,16.3,93.5,1006.7,276.5,0.7,1.2,265.3,0.18,15.3,12.3,"15:10:08",1
"23/12/15","15:30",0.0,16.3,93.0,1006.7,304.1,0.5,1.1,275.2,0.10,15.2,12.3,"15:23:20",1
"23/12/15","15:40",0.0,16.4,92.6,1006.7,283.5,0.8,1.3,323.6,0.12,15.2,12.3,"15:34:08",1
"23/12/15","15:50",0.0,16.6,91.9,1006.7,312.7,1.0,1.8,338.5,0.14,15.3,12.2,"15:49:12",1
"23/12/15","16:00",0.0,16.7,91.1,1006.7,315.0,1.1,2.1,314.6,0.08,15.3,12.4,"15:51:20",1
"23/12/15","16:10",0.0,16.6,90.6,1006.4,231.7,0.5,0.8,281.7,0.06,15.1,12.4,"16:00:32",1
"23/12/15","16:20",0.0,16.5,90.2,1006.2,274.6,0.5,1.2,238.6,0.05,14.9,12.8,"16:10:08",1
"23/12/15","16:30",0.0,16.4,89.9,1006.4,254.8,0.6,1.4,253.6,0.01,14.8,12.5,"16:23:44",1
"23/12/15","16:40",0.0,16.2,89.9,1006.7,320.1,1.2,1.9,326.2,0.00,14.6,12.5,"16:33:12",1
"23/12/15","16:50",0.0,16.1,90.1,1006.4,323.7,1.2,2.0,326.1,0.00,14.5,12.5,"16:47:28",1
"23/12/15","17:00",0.0,15.7,90.4,1006.4,313.4,1.2,1.8,327.1,0.00,14.2,12.5,"16:52:40",1
"23/12/15","17:10",0.0,15.5,90.8,1006.2,306.4,1.1,1.7,320.2,0.00,14.0,12.5,"17:08:32",1
"23/12/15","17:20",0.0,15.3,91.1,1006.0,310.4,1.0,1.7,349.1,0.00,13.9,12.4,"17:15:44",1
"23/12/15","17:30",0.0,15.1,91.7,1006.2,298.6,1.0,1.4,294.7,0.00,13.8,12.6,"17:21:52",1
"23/12/15","17:40",0.0,14.9,92.0,1006.4,297.9,1.1,1.9,321.8,0.00,13.7,12.5,"17:32:48",1
"23/12/15","17:50",0.0,15.1,92.6,1006.4,315.7,1.1,1.8,310.9,0.00,14.0,12.6,"17:44:16",1
"23/12/15","18:00",0.0,14.9,92.8,1006.4,300.4,1.2,2.1,327.3,0.00,13.8,12.7,"17:52:40",1
"23/12/15","18:10",0.0,14.9,93.2,1006.2,306.1,1.0,1.7,313.7,0.00,13.9,12.7,"18:09:36",1
"23/12/15","18:20",0.0,14.9,93.4,1006.2,313.8,1.5,2.0,320.4,0.00,13.9,12.6,"18:12:32",1
"23/12/15","18:30",0.0,14.8,93.7,1006.2,282.7,1.0,1.6,267.1,0.00,13.8,12.8,"18:27:28",1
"23/12/15","18:40",0.0,14.7,94.1,1006.4,294.6,1.0,1.7,318.0,0.00,13.8,12.6,"18:38:56",1
"23/12/15","18:50",0.0,14.8,94.3,1006.0,298.1,1.0,1.9,312.8,0.00,13.9,12.6,"18:40:08",1
"23/12/15","19:00",0.0,14.9,94.5,1006.2,294.6,1.6,3.3,239.9,0.00,14.1,12.7,"18:52:40",1
"23/12/15","19:10",0.0,14.9,94.7,1006.0,306.7,0.7,2.5,321.5,0.00,14.1,12.7,"19:06:24",1
"23/12/15","19:20",0.0,14.8,94.9,1006.2,280.5,1.3,1.8,245.2,0.00,14.0,12.5,"19:12:40",1
"23/12/15","19:30",0.0,14.8,95.0,1006.0,298.2,1.3,2.2,318.5,0.00,14.0,12.8,"19:27:28",1
"23/12/15","19:40",0.0,14.8,95.2,1006.0,290.9,1.0,2.2,236.8,0.00,14.1,12.5,"19:38:16",1
"23/12/15","19:50",0.0,14.9,95.4,1006.0,295.3,1.3,2.7,324.7,0.00,14.2,12.6,"19:48:32",1
"23/12/15","20:00",0.0,14.9,95.5,1006.2,297.7,1.3,2.1,335.8,0.00,14.2,12.7,"19:53:20",1
"23/12/15","20:10",0.0,14.9,95.6,1006.0,278.6,0.8,1.9,266.9,0.00,14.2,12.6,"20:09:52",1
"23/12/15","20:20",0.0,14.9,95.8,1005.7,271.6,1.0,2.1,325.6,0.00,14.3,12.6,"20:17:44",1
"23/12/15","20:30",0.0,15.0,95.9,1005.7,304.3,1.1,2.1,266.0,0.00,14.4,12.6,"20:26:40",1
"23/12/15","20:40",0.0,14.9,96.0,1006.0,275.1,1.2,2.0,310.3,0.00,14.3,12.4,"20:33:44",1
"23/12/15","20:50",0.0,15.0,96.1,1005.5,299.3,1.1,1.8,307.3,0.00,14.4,12.6,"20:46:32",1
"23/12/15","21:00",0.0,14.9,96.2,1005.5,287.9,0.8,1.6,311.9,0.00,14.3,12.6,"20:54:32",1
"23/12/15","21:10",0.0,15.0,96.3,1005.7,292.3,1.2,2.1,318.7,0.00,14.5,12.6,"21:06:48",1
"23/12/15","21:20",0.0,14.9,96.4,1005.5,310.1,1.1,2.4,311.0,0.00,14.4,12.8,"21:14:48",1
"23/12/15","21:30",0.0,14.9,96.5,1005.5,289.4,1.3,1.9,305.1,0.00,14.4,12.7,"21:22:08",1
"23/12/15","21:40",0.0,15.0,96.5,1005.5,304.6,1.1,1.7,310.0,0.00,14.5,12.7,"21:39:52",1
"23/12/15","21:50",0.0,15.0,96.5,1005.0,289.1,1.1,1.9,320.6,0.00,14.5,12.6,"21:40:16",1
"23/12/15","22:00",0.0,15.0,96.6,1005.5,288.5,1.3,1.8,307.4,0.00,14.5,12.7,"21:57:04",1
"23/12/15","22:10",0.0,15.0,96.7,1005.2,303.7,1.2,1.6,309.1,0.00,14.5,12.9,"22:02:48",1
"23/12/15","22:20",0.0,15.1,96.7,1005.2,292.6,1.0,1.8,317.3,0.00,14.6,12.7,"22:19:44",1
"23/12/15","22:30",0.0,15.1,96.8,1004.8,295.9,1.0,1.8,249.7,0.00,14.6,12.7,"22:25:20",1
"23/12/15","22:40",0.0,15.1,96.8,1004.8,266.3,1.2,1.9,255.6,0.00,14.6,12.5,"22:30:32",1
"23/12/15","22:50",0.0,15.2,96.9,1004.8,291.3,1.0,1.8,321.5,0.00,14.8,12.6,"22:41:04",1
"23/12/15","23:00",0.0,15.2,96.9,1004.8,305.0,0.6,2.1,257.0,0.00,14.8,12.7,"22:53:20",1
"23/12/15","23:10",0.0,15.2,97.0,1004.5,296.6,1.0,2.4,252.7,0.00,14.8,12.7,"23:00:02",1
"23/12/15","23:20",0.0,15.5,97.0,1004.5,304.3,1.5,3.3,245.2,0.00,15.1,12.5,"23:10:32",1
"23/12/15","23:30",0.0,15.4,97.0,1004.8,277.1,0.8,1.9,269.0,0.00,15.0,12.7,"23:25:52",1
"23/12/15","23:40",0.0,15.4,97.1,1004.5,307.6,1.3,2.4,311.6,0.00,15.0,12.8,"23:34:56",1
"23/12/15","23:50",0.0,15.5,97.1,1004.5,293.2,1.3,2.2,250.8,0.00,15.1,12.8,"23:47:12",1
"23/12/15","24:00",0.0,15.5,97.1,1004.5,291.5,1.0,1.9,314.8,0.00,15.1,12.6,"23:51:04",1
